ANA657 RJTT-RJOB

Flight info

Callsign ANA657
Flight time 1h 0m
Altitude 30000
Route NINOX Y28 IPLES Y207 ARASI Y20 WAKIT Y205 OYE
Aircraft B738/M-SDE2E3FGHIRWXY/LB1

Departure

Time 2026-05-06 13:09
Airport Tokyo Haneda International Airport (RJTT)

Arrival

Time 2026-05-06 14:10
Airport Okayama Momotaro Airport (RJOB)
Time Latitude Longitude Altitude Speed Heading
2026-05-06 12:47 35.55586 139.78797 23 ft 0 kts 152°
2026-05-06 12:50 35.55594 139.78792 28 ft 4 kts 148°
2026-05-06 12:51 35.55615 139.78775 28 ft 2 kts 150°
2026-05-06 12:51 35.55633 139.78758 24 ft 4 kts 115°
2026-05-06 12:51 35.55636 139.78729 24 ft 4 kts 70°
2026-05-06 12:51 35.55629 139.78711 25 ft 0 kts 60°
2026-05-06 12:54 35.55630 139.78711 25 ft 1 kts 60°
2026-05-06 12:54 35.55652 139.78757 28 ft 8 kts 59°
2026-05-06 12:55 35.55675 139.78804 25 ft 11 kts 59°
2026-05-06 12:55 35.55690 139.78896 23 ft 12 kts 115°
2026-05-06 12:55 35.55632 139.78952 25 ft 8 kts 150°
2026-05-06 12:55 35.55581 139.78988 23 ft 9 kts 150°
2026-05-06 12:56 35.55551 139.79009 23 ft 0 kts 150°
2026-05-06 12:56 35.55550 139.79010 23 ft 0 kts 150°
2026-05-06 12:59 35.55538 139.79018 23 ft 5 kts 150°
2026-05-06 12:59 35.55491 139.79051 23 ft 11 kts 151°
2026-05-06 12:59 35.55409 139.79106 26 ft 15 kts 150°
2026-05-06 12:59 35.55314 139.79175 25 ft 17 kts 149°
2026-05-06 13:00 35.55204 139.79254 23 ft 19 kts 149°
2026-05-06 13:00 35.55083 139.79340 25 ft 20 kts 151°
2026-05-06 13:00 35.54969 139.79422 25 ft 19 kts 149°
2026-05-06 13:00 35.54856 139.79503 23 ft 18 kts 150°
2026-05-06 13:01 35.54747 139.79580 23 ft 18 kts 149°
2026-05-06 13:01 35.54641 139.79654 23 ft 17 kts 151°
2026-05-06 13:01 35.54537 139.79725 24 ft 17 kts 150°
2026-05-06 13:01 35.54429 139.79803 23 ft 19 kts 149°
2026-05-06 13:02 35.54311 139.79884 27 ft 20 kts 151°
2026-05-06 13:02 35.54193 139.79973 23 ft 20 kts 149°
2026-05-06 13:02 35.54077 139.80055 25 ft 19 kts 151°
2026-05-06 13:02 35.53964 139.80135 23 ft 18 kts 150°
2026-05-06 13:03 35.53870 139.80192 24 ft 13 kts 171°
2026-05-06 13:03 35.53781 139.80176 24 ft 13 kts 179°
2026-05-06 13:03 35.53688 139.80190 25 ft 14 kts 172°
2026-05-06 13:03 35.53587 139.80238 24 ft 17 kts 149°
2026-05-06 13:04 35.53469 139.80322 24 ft 22 kts 150°
2026-05-06 13:04 35.53323 139.80426 25 ft 26 kts 149°
2026-05-06 13:04 35.53186 139.80523 24 ft 21 kts 150°
2026-05-06 13:04 35.53073 139.80600 22 ft 11 kts 156°
2026-05-06 13:05 35.53004 139.80569 24 ft 12 kts 222°
2026-05-06 13:05 35.52935 139.80491 23 ft 16 kts 223°
2026-05-06 13:05 35.52843 139.80387 24 ft 20 kts 222°
2026-05-06 13:05 35.52737 139.80269 23 ft 21 kts 222°
2026-05-06 13:06 35.52641 139.80160 22 ft 12 kts 222°
2026-05-06 13:06 35.52566 139.80155 24 ft 12 kts 142°
2026-05-06 13:06 35.52506 139.80233 23 ft 13 kts 133°
2026-05-06 13:06 35.52473 139.80278 22 ft 0 kts 132°
2026-05-06 13:07 35.52468 139.80284 24 ft 3 kts 132°
2026-05-06 13:07 35.52444 139.80319 22 ft 8 kts 122°
2026-05-06 13:08 35.52455 139.80403 23 ft 13 kts 44°
2026-05-06 13:08 35.52471 139.80421 22 ft 2 kts 43°
2026-05-06 13:08 35.52481 139.80432 23 ft 2 kts 43°
2026-05-06 13:08 35.52493 139.80446 24 ft 3 kts 43°
2026-05-06 13:09 35.52559 139.80520 22 ft 42 kts 41°
2026-05-06 13:09 35.53024 139.81046 23 ft 131 kts 42°
2026-05-06 13:09 35.53845 139.81963 161 ft 189 kts 44°
2026-05-06 13:09 35.54775 139.83101 1477 ft 186 kts 59°
2026-05-06 13:10 35.55187 139.84595 2543 ft 192 kts 95°
2026-05-06 13:10 35.54922 139.86298 3005 ft 217 kts 111°
2026-05-06 13:10 35.54443 139.88193 3374 ft 241 kts 111°
2026-05-06 13:10 35.53888 139.90262 3772 ft 267 kts 112°
2026-05-06 13:11 35.53278 139.92459 4664 ft 273 kts 114°
2026-05-06 13:11 35.50664 139.95638 6813 ft 263 kts 168°
2026-05-06 13:11 35.48842 139.95738 7683 ft 265 kts 194°
2026-05-06 13:12 35.47183 139.94782 8623 ft 266 kts 218°
2026-05-06 13:12 35.45753 139.93362 9549 ft 272 kts 221°
2026-05-06 13:12 35.44294 139.91832 10398 ft 282 kts 222°
2026-05-06 13:12 35.42732 139.90183 10673 ft 311 kts 222°
2026-05-06 13:13 35.41039 139.88356 10874 ft 338 kts 226°
2026-05-06 13:13 35.39761 139.85863 11192 ft 357 kts 253°
2026-05-06 13:13 35.39585 139.82824 11917 ft 365 kts 278°
2026-05-06 13:13 35.40424 139.79882 12846 ft 367 kts 290°
2026-05-06 13:14 35.41366 139.76926 13676 ft 370 kts 288°
2026-05-06 13:14 35.42242 139.73859 14411 ft 373 kts 286°
2026-05-06 13:14 35.43056 139.70856 15236 ft 371 kts 285°
2026-05-06 13:14 35.43849 139.67851 16090 ft 370 kts 285°
2026-05-06 13:15 35.44640 139.64819 16670 ft 377 kts 285°
2026-05-06 13:15 35.45431 139.61778 17321 ft 379 kts 285°
2026-05-06 13:15 35.46235 139.58687 18082 ft 380 kts 285°
2026-05-06 13:15 35.47040 139.55596 18762 ft 380 kts 285°
2026-05-06 13:16 35.47847 139.52485 19315 ft 383 kts 284°
2026-05-06 13:16 35.48475 139.49291 19710 ft 387 kts 276°
2026-05-06 13:16 35.48684 139.45995 20245 ft 387 kts 270°
2026-05-06 13:16 35.48789 139.42742 20875 ft 386 kts 269°
2026-05-06 13:17 35.48904 139.39453 21480 ft 386 kts 269°
2026-05-06 13:17 35.49028 139.36154 22008 ft 388 kts 268°
2026-05-06 13:17 35.49156 139.32846 22494 ft 389 kts 268°
2026-05-06 13:17 35.49288 139.29523 22970 ft 391 kts 268°
2026-05-06 13:18 35.49421 139.26184 23437 ft 392 kts 268°
2026-05-06 13:18 35.49554 139.22836 23777 ft 394 kts 267°
2026-05-06 13:18 35.49686 139.19476 24171 ft 394 kts 267°
2026-05-06 13:18 35.49798 139.16107 24456 ft 395 kts 265°
2026-05-06 13:19 35.49712 139.12746 24846 ft 391 kts 262°
2026-05-06 13:19 35.49542 139.09448 25245 ft 391 kts 262°
2026-05-06 13:19 35.49354 139.06119 25530 ft 393 kts 262°
2026-05-06 13:19 35.49169 139.02748 25759 ft 397 kts 262°
2026-05-06 13:20 35.48989 138.99376 26174 ft 395 kts 262°
2026-05-06 13:20 35.48816 138.96002 26544 ft 395 kts 263°
2026-05-06 13:20 35.48648 138.92631 26868 ft 396 kts 263°
2026-05-06 13:20 35.48482 138.89259 27344 ft 393 kts 263°
2026-05-06 13:21 35.48321 138.85967 27916 ft 389 kts 263°
2026-05-06 13:21 35.48158 138.82680 28618 ft 383 kts 263°
2026-05-06 13:21 35.47997 138.79451 29283 ft 377 kts 263°
2026-05-06 13:21 35.47836 138.76251 29751 ft 376 kts 263°
2026-05-06 13:22 35.47673 138.73041 30092 ft 377 kts 263°
2026-05-06 13:22 35.47340 138.66551 30182 ft 383 kts 263°
2026-05-06 13:23 35.47006 138.60050 30191 ft 380 kts 263°
2026-05-06 13:23 35.46670 138.53586 30197 ft 379 kts 263°
2026-05-06 13:24 35.46336 138.47183 30197 ft 377 kts 263°
2026-05-06 13:24 35.45993 138.40741 30167 ft 378 kts 263°
2026-05-06 13:25 35.45648 138.34291 30196 ft 382 kts 263°
2026-05-06 13:25 35.45351 138.28825 30198 ft 389 kts 262°
2026-05-06 13:26 35.44931 138.21105 30160 ft 389 kts 263°
2026-05-06 13:26 35.44632 138.15621 30177 ft 387 kts 262°
2026-05-06 13:27 35.44241 138.09024 30190 ft 388 kts 262°
2026-05-06 13:27 35.43852 138.02424 30188 ft 387 kts 262°
2026-05-06 13:28 35.43460 137.95840 30165 ft 386 kts 262°
2026-05-06 13:28 35.43070 137.89339 30172 ft 384 kts 262°
2026-05-06 13:29 35.42675 137.82799 30177 ft 383 kts 262°
2026-05-06 13:29 35.42270 137.76295 30189 ft 380 kts 261°
2026-05-06 13:30 35.41802 137.69903 30170 ft 377 kts 261°
2026-05-06 13:30 35.41335 137.63518 30172 ft 374 kts 261°
2026-05-06 13:31 35.40864 137.57163 30172 ft 374 kts 261°
2026-05-06 13:31 35.40205 137.50856 30180 ft 373 kts 258°
2026-05-06 13:32 35.39426 137.44547 30155 ft 375 kts 258°
2026-05-06 13:32 35.38657 137.38231 30157 ft 375 kts 258°
2026-05-06 13:33 35.37900 137.31934 30161 ft 376 kts 258°
2026-05-06 13:33 35.37136 137.25583 30169 ft 377 kts 258°
2026-05-06 13:34 35.36369 137.19223 30154 ft 377 kts 258°
2026-05-06 13:34 35.35614 137.12993 30152 ft 376 kts 258°
2026-05-06 13:35 35.34834 137.06561 30142 ft 376 kts 257°
2026-05-06 13:35 35.34063 137.00210 30148 ft 375 kts 258°
2026-05-06 13:36 35.33298 136.93941 30140 ft 375 kts 257°
2026-05-06 13:36 35.32525 136.87636 30144 ft 374 kts 257°
2026-05-06 13:37 35.31749 136.81329 30145 ft 374 kts 257°
2026-05-06 13:37 35.30971 136.75027 30137 ft 374 kts 257°
2026-05-06 13:38 35.30190 136.68736 30144 ft 374 kts 257°
2026-05-06 13:38 35.29520 136.63368 30151 ft 373 kts 257°
2026-05-06 13:39 35.28728 136.57077 30142 ft 373 kts 257°
2026-05-06 13:39 35.27936 136.50815 30163 ft 370 kts 257°
2026-05-06 13:40 35.27150 136.44610 30129 ft 370 kts 257°
2026-05-06 13:40 35.26357 136.38380 30164 ft 372 kts 257°
2026-05-06 13:41 35.25562 136.32100 30136 ft 373 kts 257°
2026-05-06 13:41 35.24799 136.25840 30125 ft 374 kts 257°
2026-05-06 13:42 35.24027 136.19542 30132 ft 373 kts 257°
2026-05-06 13:42 35.23169 136.13276 30125 ft 373 kts 255°
2026-05-06 13:43 35.22221 136.07045 30143 ft 373 kts 255°
2026-05-06 13:43 35.21298 136.00833 30131 ft 373 kts 256°
2026-05-06 13:44 35.20381 135.94575 30116 ft 373 kts 255°
2026-05-06 13:44 35.19464 135.88345 30116 ft 372 kts 255°
2026-05-06 13:45 35.18647 135.82819 30123 ft 373 kts 255°
2026-05-06 13:45 35.17168 135.73510 30110 ft 374 kts 254°
2026-05-06 13:46 35.16102 135.67285 30125 ft 374 kts 254°
2026-05-06 13:46 35.15032 135.61044 30117 ft 375 kts 254°
2026-05-06 13:47 35.13969 135.54804 30119 ft 375 kts 254°
2026-05-06 13:47 35.12914 135.48601 30115 ft 376 kts 254°
2026-05-06 13:48 35.11845 135.42340 30120 ft 376 kts 254°
2026-05-06 13:48 35.10769 135.36067 29763 ft 380 kts 254°
2026-05-06 13:49 35.10230 135.32928 29202 ft 373 kts 255°
2026-05-06 13:49 35.09704 135.29867 28630 ft 365 kts 255°
2026-05-06 13:49 35.09188 135.26850 27923 ft 360 kts 255°
2026-05-06 13:49 35.08666 135.23810 26662 ft 372 kts 256°
2026-05-06 13:50 35.08127 135.20670 25448 ft 384 kts 257°
2026-05-06 13:50 35.07573 135.17435 24363 ft 393 kts 258°
2026-05-06 13:50 35.07009 135.14139 23425 ft 398 kts 259°
2026-05-06 13:50 35.06450 135.10876 22703 ft 395 kts 259°
2026-05-06 13:51 35.05891 135.07616 22142 ft 388 kts 259°
2026-05-06 13:51 35.05340 135.04417 21508 ft 382 kts 259°
2026-05-06 13:51 35.04796 135.01257 20859 ft 376 kts 259°
2026-05-06 13:51 35.04265 134.98181 20208 ft 365 kts 259°
2026-05-06 13:52 35.03740 134.95147 19243 ft 364 kts 258°
2026-05-06 13:52 35.03196 134.92128 18174 ft 365 kts 256°
2026-05-06 13:52 35.02501 134.89160 17067 ft 363 kts 253°
2026-05-06 13:52 35.01737 134.86228 16018 ft 361 kts 252°
2026-05-06 13:53 35.00972 134.83330 15161 ft 355 kts 252°
2026-05-06 13:53 35.00232 134.80516 14653 ft 346 kts 252°
2026-05-06 13:53 34.99507 134.77732 14183 ft 343 kts 252°
2026-05-06 13:53 34.98795 134.74971 13680 ft 340 kts 252°
2026-05-06 13:54 34.98092 134.72229 13173 ft 337 kts 252°
2026-05-06 13:54 34.97396 134.69514 12616 ft 335 kts 252°
2026-05-06 13:54 34.96701 134.66809 12152 ft 332 kts 252°
2026-05-06 13:54 34.96024 134.64147 11540 ft 334 kts 253°
2026-05-06 13:55 34.95338 134.61435 11057 ft 332 kts 253°
2026-05-06 13:55 34.94669 134.58794 10860 ft 320 kts 253°
2026-05-06 13:55 34.94021 134.56242 10712 ft 309 kts 253°
2026-05-06 13:55 34.93395 134.53780 10579 ft 299 kts 253°
2026-05-06 13:56 34.92784 134.51402 10440 ft 289 kts 253°
2026-05-06 13:56 34.92189 134.49109 10329 ft 279 kts 253°
2026-05-06 13:56 34.91610 134.46883 10208 ft 271 kts 252°
2026-05-06 13:56 34.91056 134.44754 10099 ft 263 kts 252°
2026-05-06 13:57 34.90510 134.42654 9899 ft 258 kts 253°
2026-05-06 13:57 34.89966 134.40565 9633 ft 257 kts 252°
2026-05-06 13:57 34.89430 134.38502 9376 ft 255 kts 252°
2026-05-06 13:57 34.88897 134.36457 9103 ft 253 kts 252°
2026-05-06 13:58 34.88367 134.34420 8836 ft 251 kts 252°
2026-05-06 13:58 34.87841 134.32402 8587 ft 248 kts 252°
2026-05-06 13:58 34.87318 134.30401 8332 ft 247 kts 252°
2026-05-06 13:58 34.86798 134.28412 8067 ft 246 kts 252°
2026-05-06 13:59 34.86278 134.26425 7815 ft 249 kts 252°
2026-05-06 13:59 34.85750 134.24390 7581 ft 255 kts 252°
2026-05-06 13:59 34.85209 134.22304 7309 ft 259 kts 252°
2026-05-06 13:59 34.84675 134.20245 7043 ft 257 kts 252°
2026-05-06 14:00 34.84139 134.18181 6772 ft 255 kts 252°
2026-05-06 14:00 34.83602 134.16134 6487 ft 253 kts 250°
2026-05-06 14:00 34.82728 134.14297 6219 ft 251 kts 231°
2026-05-06 14:00 34.81608 134.12684 5959 ft 248 kts 230°
2026-05-06 14:01 34.80513 134.11070 5695 ft 246 kts 231°
2026-05-06 14:01 34.79429 134.09458 5426 ft 244 kts 231°
2026-05-06 14:01 34.78360 134.07864 5174 ft 242 kts 231°
2026-05-06 14:01 34.77316 134.06303 4934 ft 241 kts 231°
2026-05-06 14:02 34.76255 134.04714 4632 ft 241 kts 231°
2026-05-06 14:02 34.75203 134.03136 4379 ft 240 kts 231°
2026-05-06 14:02 34.74152 134.01559 4121 ft 239 kts 231°
2026-05-06 14:02 34.73111 133.99998 3937 ft 234 kts 230°
2026-05-06 14:03 34.72107 133.98485 3836 ft 227 kts 231°
2026-05-06 14:03 34.71126 133.97014 3727 ft 220 kts 230°
2026-05-06 14:03 34.70167 133.95583 3605 ft 219 kts 230°
2026-05-06 14:03 34.69196 133.94133 3530 ft 222 kts 230°
2026-05-06 14:04 34.68220 133.92676 3508 ft 222 kts 231°
2026-05-06 14:04 34.67283 133.91265 3508 ft 206 kts 230°
2026-05-06 14:04 34.66418 133.89973 3494 ft 188 kts 231°
2026-05-06 14:04 34.65625 133.88790 3495 ft 175 kts 231°
2026-05-06 14:05 34.64860 133.87644 3504 ft 175 kts 232°
2026-05-06 14:05 34.64212 133.86418 3499 ft 175 kts 244°
2026-05-06 14:05 34.63817 133.85007 3336 ft 179 kts 258°
2026-05-06 14:05 34.63713 133.83486 3037 ft 183 kts 272°
2026-05-06 14:06 34.63926 133.81952 2721 ft 185 kts 286°
2026-05-06 14:06 34.64439 133.80527 2360 ft 184 kts 300°
2026-05-06 14:06 34.65201 133.79324 2128 ft 171 kts 317°
2026-05-06 14:06 34.66115 133.78481 2116 ft 162 kts 331°
2026-05-06 14:07 34.66779 133.78081 2116 ft 160 kts 339°
2026-05-06 14:07 34.67835 133.77682 2100 ft 158 kts 351°
2026-05-06 14:07 34.68941 133.77555 2124 ft 159 kts
2026-05-06 14:07 34.70372 133.77830 2114 ft 156 kts 19°
2026-05-06 14:08 34.71372 133.78352 2007 ft 158 kts 32°
2026-05-06 14:08 34.71978 133.78839 1866 ft 156 kts 40°
2026-05-06 14:08 34.72750 133.79733 1665 ft 151 kts 52°
2026-05-06 14:08 34.73357 133.80758 1445 ft 149 kts 59°
2026-05-06 14:09 34.73897 133.81851 1298 ft 154 kts 61°
2026-05-06 14:09 34.74453 133.82997 1157 ft 158 kts 60°
2026-05-06 14:09 34.75005 133.84137 867 ft 153 kts 60°
2026-05-06 14:09 34.75519 133.85195 800 ft 128 kts 58°
2026-05-06 14:10 34.75865 133.85895 800 ft 64 kts 59°
2026-05-06 14:10 34.75988 133.86144 799 ft 16 kts 59°
2026-05-06 14:10 34.76045 133.86258 799 ft 15 kts 59°
2026-05-06 14:10 34.76099 133.86367 798 ft 15 kts 59°
2026-05-06 14:11 34.76169 133.86449 797 ft 14 kts 13°
2026-05-06 14:11 34.76231 133.86417 802 ft 6 kts 326°
2026-05-06 14:11 34.76261 133.86385 804 ft 6 kts 306°
2026-05-06 14:11 34.76272 133.86341 804 ft 6 kts 265°
2026-05-06 14:12 34.76248 133.86283 805 ft 10 kts 240°
2026-05-06 14:12 34.76203 133.86190 805 ft 13 kts 239°
2026-05-06 14:12 34.76148 133.86078 805 ft 17 kts 238°
2026-05-06 14:12 34.76083 133.85947 805 ft 19 kts 239°
2026-05-06 14:13 34.76016 133.85809 805 ft 16 kts 239°
2026-05-06 14:13 34.75968 133.85712 805 ft 9 kts 239°
2026-05-06 14:13 34.75936 133.85648 805 ft 9 kts 239°
2026-05-06 14:13 34.75915 133.85605 805 ft 1 kts 239°
2026-05-06 14:14 34.75912 133.85599 805 ft 1 kts 245°
2026-05-06 14:14 34.75913 133.85590 805 ft 1 kts 275°
2026-05-06 14:14 34.75930 133.85570 805 ft 6 kts 327°
2026-05-06 14:14 34.75980 133.85536 805 ft 9 kts 331°
2026-05-06 14:15 34.76014 133.85508 806 ft 4 kts 323°
2026-05-06 14:15 34.76031 133.85495 806 ft 3 kts 328°
2026-05-06 14:15 34.76034 133.85493 806 ft 0 kts 329°